User: anonymous   Login
Location: Charleston
(38.3500°N, 81.6330°W)
Time: 19:23:29
(UTC-05:00)
Language:

Cosmos 2228 - Orbit

View from above orbital plane
View from above orbital plane
View from above satellite
View from above satellite

Ground track
Ground track

The orbit data is extracted from the following two-line orbital elements,

1 22286U 92094A   15028.81618587  .00001354  00000-0  14954-3 0  5461
2 22286 082.5222 114.2405 0022462 128.2425 232.0818 14.86546768193125
Epoch (UTC): 28 January 2015 19:35:18
Eccentricity: 0.0022462
inclination: 82.5222°
perigee height: 593 km
apogee height: 624 km
right ascension of ascending node: 114.2405°
argument of perigee: 128.2425°
revolutions per day: 14.86546768
mean anomaly at epoch: 232.0818°
orbit number at epoch: 19312

The dashed part of the orbit path shows where the satellite is in the earth's shadow,  

DLR